www.pogodaiklimat.ru

Погода и климат >> Архив погоды >> Индонезия >> Аэропорт Соронг-Джефман


ПОГОДА в Аэропорту Соронг-Джефман

  • Прогноз погоды в Аэропорту Соронг-Джефман
  • Монитор погоды в Аэропорту Соронг-Джефман

АРХИВ ПОГОДЫ в Аэропорту Соронг-Джефман

Время (UTC), дата Ветер
(напр.,м/с)
 
Видим.   Явления Облачность Т
(С)
Тd
(С)
f
(%)
Тe
(С)
Тes
(С)
Комфортность P
(гПа)
Po
(гПа)
Тmin
(С)
Tmax
(С)
R
(мм)
R24
(мм)
S
(см)
03 14.06 З 4 9000 м 6/4 360 м
[Cu Sc Ac trans Ci fib]
+29.6 +26.5 83 +45 +52 опасность
перегрева
1008.6 1008.6
06 14.06 ЮЗ 4 7000 м осадки на расстоянии 8/5 360 м
[Cb calv Ac trans Ci fib]
+31.0 +25.7 73 +46 +48 опасность
перегрева
1005.8 1005.8 0.6
09 14.06 ЮВ 3 3000 м слаб. дождь 10/6 360 м
[Cb cap As op]
+26.2 +25.7 97 +39 +39 очень
душно
1007.3 1007.3 5
12 14.06 В 2 6000 м {дождь} 8/5 360 м
[Cu hum Ac trans Ci fib]
+25.5 +25.0 97 +36 +36 очень
душно
1009.5 1009.5 +31.6 7
15 14.06 В 1 6000 м 8/5 360 м
[Cu hum Ac trans Ci fib]
+25.7 +25.2 97 +37 +37 очень
душно
1009.2 1009.2
18 14.06 ЮВ 3 6000 м {дождь} 8/5 360 м
[Cu hum Ac trans Ci fib]
+25.7 +25.5 99 +37 +37 очень
душно
1008.8 1008.8 0.5
21 14.06 В 2 6000 м {дождь} 9/5 360 м
[Cu hum As op Ci fib]
+25.0 +24.5 97 +35 +35 очень
душно
1009.3 1009.3 2
00 15.06 СВ 2 7000 м {дождь} 8/6 300 м
[Cb cap Ac As Ci fib]
+25.9 +24.7 93 +37 +39 очень
душно
1011.4 1011.4 +24.8 14
03 15.06 Ю 2 8000 м в посл. час дождь 9/8 360 м
[Cu Sc Ac As Ci fib]
+28.7 +25.8 84 +43 +46 опасность
перегрева
1010.3 1010.3 0.2
06 15.06 З 4 9000 м {дождь} 8/5 360 м
[Cu Sc Ac trans Ci fib]
+29.0 +25.1 80 +42 +45 опасность
перегрева
1007.9 1007.9 0.2
09 15.06 Ю 3 9000 м 8/4 360 м
[Cu Sc Ac trans Ci fib]
+27.1 +25.0 88 +39 +39 очень
душно
1008.9 1008.9
12 15.06 В 2 6000 м 8/5 360 м
[Cu hum Ac trans Ci fib]
+25.8 +25.0 95 +37 +37 очень
душно
1011.2 1011.2 +29.6
15 15.06 штиль 0 6000 м 6/4 360 м
[Cu hum Ac trans Ci fib]
+25.6 +24.6 94 +36 +36 очень
душно
1011.1 1011.1
18 15.06 штиль 0 6000 м {дождь} 8/5 360 м
[Cu hum Ac trans Ci fib]
+25.2 +24.5 96 +35 +35 очень
душно
1009.8 1009.8 0.6
21 15.06 штиль 0 6000 м {дождь} 6/4 360 м
[Cu hum Ac trans Ci fib]
+24.9 +24.4 97 +35 +35 очень
душно
1010.0 1010.0 0.1
00 16.06 ЮВ 3 10 км {дождь} 6/4 360 м
[Cu Sc Ac trans Ci fib]
+27.9 +25.6 87 +41 +45 опасность
перегрева
1011.0 1011.0 +24.6 0.1
03 16.06 ЮЗ 4 9000 м 8/5 300 м
[Cb cap Ac trans Ci fib]
+28.7 +25.8 84 +43 +47 опасность
перегрева
1009.9 1009.9
06 16.06 Ю 2 5000 м слаб. дождь 9/8 360 м
[Cu Sc Ac As Ci fib]
+25.7 +24.9 95 +36 +38 очень
душно
1008.5 1008.5 4
09 16.06 ЮВ 2 5000 м слаб. дождь 9/8 300 м
[Cu Sc Ac As Ci fib]
+25.8 +25.1 96 +37 +37 очень
душно
1009.6 1009.6 3
12 16.06 ЮВ 2 4000 м слаб. дождь 8/6 360 м
[Cu med, cong Ac trans Ci fib]
+24.8 +24.3 97 +34 +34 очень
душно
1011.8 1011.8 +29.2 15
15 16.06 В 1 4000 м слаб. дождь 8/6 360 м
[Cu med, cong Ac trans Ci fib]
+24.7 +24.2 97 +34 +34 очень
душно
1011.7 1011.7 3
18 16.06 В 1 4000 м слаб. дождь 8/6 360 м
[Cu med, cong Ac trans Ci fib]
+24.3 +23.8 97 +33 +33 очень
душно
1010.6 1010.6 4
21 16.06 В 2 5000 м в посл. час дождь 8/5 360 м
[Cu med, cong Ac trans Ci fib]
+24.2 +23.9 98 +33 +33 очень
душно
1010.6 1010.6 0.7
00 17.06 ЮВ 3 7000 м осадки на расстоянии 9/6 360 м
[Cu Sc Ac As Ci fib]
+26.6 +25.4 93 +39 +41 очень
душно
1011.8 1011.8 +24.0 0.2
03 17.06 Ю 4 8000 м 8/5 360 м
[Cu Sc Ac trans Ci fib]
+30.1 +25.9 78 +45 +50 опасность
перегрева
1010.6 1010.6
06 17.06 штиль 0 4000 м слаб. дождь 9/6 330 м
[Cb cap Ac trans Ci fib]
+25.8 +25.1 96 +37 +41 очень
душно
1009.4 1009.4 1
09 17.06 ЮВ 2 5000 м дождь 9/6 360 м
[Cu Sc As op Ci fib]
+25.3 +24.8 97 +36 +36 очень
душно
1010.4 1010.4 3
12 17.06 СВ 1 6000 м {дождь} 8/5 360 м
[Cu hum Ac trans Ci fib]
+25.4 +24.4 94 +35 +35 очень
душно
1012.1 1012.1 +30.6 0.2
15 17.06 В 2 6000 м в посл. час дождь 8/6 360 м
[Cu hum Ac trans Ci fib]
+24.8 +24.5 98 +35 +35 очень
душно
1011.7 1011.7 2
18 17.06 В 3 6000 м {дождь} 6/5 360 м
[Cu hum Ac trans Ci fib]
+24.6 +24.1 97 +34 +34 очень
душно
1010.7 1010.7 2
21 17.06 Ю 1 6000 м 6/5 360 м
[Cu hum Ac trans Ci fib]
+24.3 +24.0 98 +33 +33 очень
душно
1010.7 1010.7
00 18.06 ЮВ 3 8000 м 9/8 360 м
[Cu Sc Ac As Ci fib]
+25.7 +24.5 93 +36 +37 очень
душно
1011.6 1011.6 +24.2 7
03 18.06 Ю 5 9000 м 9/3 360 м
[Cu Sc Ac As Ci fib]
+29.1 +25.4 80 +42 +46 опасность
перегрева
1009.7 1009.7
06 18.06 ЮЗ 7 7000 м осадки на расстоянии 9/6 360 м
[Cu Sc Ac trans Ci fib]
+28.4 +25.3 83 +41 +42 опасность
перегрева
1008.1 1008.1
09 18.06 Ю 4 7000 м в посл. час дождь 8/5 300 м
[Cb calv Ac trans Ci fib]
+27.1 +25.0 88 +39 +39 очень
душно
1009.3 1009.3 0.6
12 18.06 штиль 0 6000 м {дождь} 6/4 360 м
[Cu hum Ac trans Ci fib]
+25.6 +24.6 94 +36 +36 очень
душно
1010.8 1010.8 +31.4 0.2
15 18.06 штиль 0 6000 м 6/4 360 м
[Cu hum Ac trans Ci fib]
+25.1 +24.3 95 +35 +35 очень
душно
1010.1 1010.1
18 18.06 штиль 0 6000 м 5/3 360 м
[Cu hum Ac trans Ci fib]
+24.8 +24.0 95 +34 +34 очень
душно
1008.8 1008.8
21 18.06 штиль 0 7000 м 3/1 360 м
[Cu hum Ci fib]
+24.1 +23.6 97 +33 +33 очень
душно
1009.3 1009.3
00 19.06 ЮВ 5 9000 м 6/4 360 м
[Cu Sc Ac trans Ci fib]
+27.6 +23.9 80 +38 +40 очень
душно
1010.2 1010.2 +24.8 0.8
03 19.06 Ю 6 4000 м слаб. дождь 9/5 300 м
[Cb calv Ac As Ci fib]
+26.3 +25.5 95 +38 +41 очень
душно
1009.4 1009.4 0.3
06 19.06 Ю 3 6000 м в посл. час дождь 8/5 300 м
[Cb cap Ac trans Ci fib]
+27.4 +24.9 86 +39 +42 очень
душно
1008.1 1008.1 0.3
09 19.06 ЮВ 3 9000 м 8/5 360 м
[Cu Sc Ac trans Ci fib]
+27.2 +24.5 85 +38 +38 очень
душно
1008.4 1008.4
12 19.06 В 1 7000 м 6/4 360 м
[Cu hum Ac trans Ci fib]
+25.5 +24.3 93 +35 +35 очень
душно
1010.0 1010.0 +29.3
15 19.06 СВ 2 7000 м 6/4 360 м
[Cu hum Ac trans Ci fib]
+24.3 +23.6 96 +33 +33 очень
душно
1010.0 1010.0
18 19.06 СВ 1 7000 м 6/4 360 м
[Cu hum Ac trans Ci fib]
+24.0 +23.3 96 +32 +32 очень
душно
1009.0 1009.0
21 19.06 В 1 7000 м 6/4 360 м
[Cu hum Ac trans Ci fib]
+24.5 +23.7 95 +33 +33 очень
душно
1009.1 1009.1
00 20.06 ЮВ 6 9000 м 6/5 360 м
[Cu Sc Ac trans Ci fib]
+26.9 +24.2 85 +37 +39 очень
душно
1010.3 1010.3 +24.6 3
03 20.06 Ю 5 8000 м 6/4 360 м
[Cu med, cong Ac trans Ci fib]
+30.4 +24.7 72 +43 +49 опасность
перегрева
1009.1 1009.1
06 20.06 Ю 4 9000 м 5/4 360 м
[Cu hum Ac trans Ci fib]
+30.6 +23.7 67 +42 +46 опасность
перегрева
1007.8 1007.8
09 20.06 Ю 5 9000 м 5/4 360 м
[Cu hum Ac trans Ci fib]
+28.5 +23.7 75 +39 +39 очень
душно
1008.8 1008.8
12 20.06 ЮВ 2 7000 м 5/4 360 м
[Cu hum Ac trans Ci fib]
+26.1 +24.1 89 +36 +36 очень
душно
1011.0 1011.0 +31.8
15 20.06 штиль 0 7000 м 5/4 360 м
[Cu hum Ac trans Ci fib]
+25.0 +23.8 93 +34 +34 очень
душно
1010.8 1010.8
18 20.06 В 1 7000 м 5/4 360 м
[Cu hum Ac trans Ci fib]
+24.5 +24.0 97 +34 +34 очень
душно
1009.4 1009.4
21 20.06 В 2 7000 м 4/3 930 м
[Cu hum Ac trans Ci fib]
+23.8 +23.5 98 +32 +32 очень
душно
1009.3 1009.3 0.0

 

Местоположение метеостанции Аэропорт Соронг-Джефман (Индонезия): широта -0.93 долгота 131.11 высота над уровнем моря 3 м.

В архиве по умолчанию представлена погода в Аэропорту Соронг-Джефман за последнюю неделю. Архивные данные за месяц целиком и за предыдущие месяцы, начиная с января 2011 года, Вы можете получить, выбрав интересующий диапазон дат из раскрывающегося списка и нажав кнопку "Ввод!".


*Определитесь, кто Вы:
робот инопланетянин человек

Внимание! Время в таблицах - всемирное. Для получения местного времени необходимо прибавить поправку, которая равна 7 ч.

Смотрите также архив погоды в соседних городах и на ближайших метеорологических станциях:

Погода в Факфаке (Индонезия) (256 км)
Погода в Гесере (Индонезия) (321 км)
Погода в Маноквари (Индонезия) (327 км)
Погода в Амахаи (Индонезия) (366 км)
Погода в Лабухе (Индонезия) (403 км)
Погода в Неира (Индонезия) (422 км)
Погода в Каимана (Индонезия) (423 км)
Погода в Амбоне (Индонезия) (456 км)
Погода в Тернате (Индонезия) (458 км)
Погода в Голеа (Индонезия) (476 км)

Пояснения к столбцам:

Ветер - указаны скорость ветра в м/с - средняя за 10 мин, порывы в срок и между сроками (в фигурных скобках) и направление, откуда дует ветер: С - северный, СВ - северо-восточный, В - восточный, ЮВ - юго-восточный, Ю - южный, ЮЗ - юго-западный, З - западный, СЗ - северо-западный.
Видимость - горизонтальная дальность видимости в метрах или километрах. При видимости от 1 до 10 км при отсутствии осадков обычно наблюдается дымка, при ухудшении видимости до 1 км и менее - туман. В сухую погоду видимость может ухудшаться дымом, пылью или мглою.
Явления - указаны атмосферные явления, наблюдавшиеся в срок или в последний час перед сроком; фигурными скобками обозначены явления, наблюдавшиеся между сроками (за 1-3 часа до срока); квадратными скобками обозначены град или гололедные отложения с указанием их диаметра в мм.
Облачность - указаны через наклонную черту общая и нижняя облачность в баллах и высота нижней границы облаков в метрах; квадратными скобками обозначены формы облаков: Ci - перистые, Cs - перисто-слоистые, Cc - перисто-кучевые, Ac - высококучевые, As - высокослоистые, Sc - слоисто-кучевые, Ns - слоисто-дождевые, Cu - кучевые, Cb - кучево-дождевые. Подробнее классификацию облаков см. в Атласе облаков (PDF).
T - Температура воздуха - температура, измеренная на высоте 2 м над землей.
Td - Температура точки росы - температура, при понижении до которой содержащийся в воздухе водяной пар достигнет насыщения.
f - Относительная влажность воздуха - влажноcть воздуха, измеренная на высоте 2 м над землей.
Te - Эффективная температура - температура, которую ощущает одетый по сезону человек в тени. Характеристика душности погоды. При расчете учитывается влияние влажности воздуха и скорости ветра на теплоощущения человека.
Tes - Эффективная температура на солнце - температура, которую ощущает человек, с поправкой на солнечный нагрев. Характеристика знойности погоды. Зависит от высоты солнца над горизонтом, облачности и скорости ветра. Ночью, в пасмурную погоду, а также при ветре 12 м/с и более поправка равна нулю.
P - Атмосферное давление - приведенное к уровню моря атмосферное давление.
Po - Атмосферное давление - измеренное на уровне метеостанции атмосферное давление.
Tmin - Минимальная температура - минимум температуры воздуха на высоте 2 м над землей.
Tmax - Максимальная температура - максимум температуры воздуха на высоте 2 м над землей.
R - Количество осадков - Количество выпавших осадков за период времени, мм. При наведении курсора мыши на число - период времени, за который выпало указанное количество осадков.
R24 - Количество осадков - Количество выпавших осадков за 24 часа, мм.
S - Снежный покров - Высота снежного покрова, см. При наведении курсора мыши на число - состояние снежного покрова и степень покрытия местности в баллах.